This is the latest recevied weather packets stored in our database for station/object K7FRY. If no packets are shown the sender has not sent any weather packets the latest 10 day(s).
| Time | Temp. | Humidity | Pressure | Rain* | Wind** | Luminosity | Snow |
|---|---|---|---|---|---|---|---|
| 1777968049 | 14.44° C | 98% | 1015.9 hPa | 3.05 mm | - | 0 W/m² | - |
| 1777967745 | 14.44° C | 98% | 1016 hPa | 3.05 mm | - | 0 W/m² | - |
| 1777967442 | 14.44° C | 98% | 1016.3 hPa | 1.27 mm | - | 0 W/m² | - |
| 1777967139 | 14.44° C | 98% | 1016.4 hPa | 0 mm | - | 0 W/m² | - |
| 1777966836 | 14.44° C | 97% | 1016 hPa | 1.78 mm | - | 0 W/m² | - |
| 1777966533 | 14.44° C | 97% | 1015.8 hPa | 0 mm | - | 0 W/m² | - |
| 1777966232 | 14.44° C | 97% | 1016 hPa | 1.27 mm | - | 0 W/m² | - |
| 1777965927 | 14.44° C | 97% | 1016.2 hPa | 1.27 mm | - | 0 W/m² | - |
| 1777965623 | 14.44° C | 96% | 1016.1 hPa | 0 mm | - | 0 W/m² | - |
| 1777965319 | 14.44° C | 96% | 1016.1 hPa | 1.78 mm | - | 0 W/m² | - |
| 1777965018 | 14.44° C | 96% | 1016.1 hPa | 1.78 mm | - | 0 W/m² | - |
| 1777964715 | 14.44° C | 95% | 1016.1 hPa | 0 mm | - | 0 W/m² | - |
| 1777964410 | 14.44° C | 95% | 1016 hPa | 0 mm | - | 0 W/m² | - |
| 1777964106 | 14.44° C | 94% | 1016 hPa | 1.27 mm | - | 0 W/m² | - |
| 1777963803 | 15° C | 94% | 1016.1 hPa | 1.27 mm | - | 0 W/m² | - |
| 1777963500 | 14.44° C | 94% | 1016.2 hPa | 0 mm | - | 0 W/m² | - |
| 1777963198 | 14.44° C | 94% | 1016.4 hPa | 0 mm | - | 0 W/m² | - |
| 1777962895 | 14.44° C | 94% | 1016.4 hPa | 0 mm | - | 0 W/m² | - |
| 1777962591 | 14.44° C | 95% | 1016.3 hPa | 1.78 mm | - | 0 W/m² | - |
| 1777962288 | 15° C | 95% | 1016.4 hPa | 1.78 mm | - | 0 W/m² | - |
| 1777961985 | 14.44° C | 95% | 1016.4 hPa | 0 mm | - | 0 W/m² | - |
| 1777961683 | 14.44° C | 95% | 1016.4 hPa | 0 mm | - | 0 W/m² | - |
| 1777961380 | 14.44° C | 96% | 1015.9 hPa | 0 mm | - | 0 W/m² | - |
| 1777961077 | 14.44° C | 96% | 1015.9 hPa | 0 mm | - | 0 W/m² | - |
| 1777960773 | 15° C | 96% | 1015.9 hPa | 0 mm | - | 0 W/m² | - |
* Rain latest hour (hover to see other rain measurements)
** Current wind speed in m/s (hover to see current wind gust speed)